Theta_e
295 297 296 296 295 296 296 296 296 297 297 297 297 298 298 297 297 297 293 296 294 295 295 296 297 296 297 298 298 298 298 298 299 299 299 299 299 299 298 298 297 297 297 296 295 295 295 294 294 293 293 290 289 288 287 286 286 286 286 285 285 283 283 283 282 279 278 279 281 281 281 282 281 282 281 281 281 282 284 282 282 281 281 281 281
296 296 295 296 295 296 295 294 296 295 295 295 295 296 295 295 294 291 293 294 293 295 295 296 296 296 297 298 297 297 297 299 297 296 297 297 298 299 298 297 297 297 296 296 295 294 293 293 293 293 291 290 289 288 287 286 285 285 285 284 284 283 284 284 282 280 279 277 278 280 280 282 280 282 281 281 281 281 281 281 281 281 281 280 280
294 294 294 294 294 293 292 293 293 292 293 293 293 294 293 291 290 292 293 292 291 293 294 294 295 295 296 297 297 296 296 296 296 295 295 296 297 297 297 297 297 296 296 296 295 294 292 292 293 293 290 288 288 288 287 286 286 285 285 284 284 283 283 283 282 281 279 278 279 279 280 280 280 280 281 282 282 281 280 280 280 281 281 280 280
291 291 292 293 292 290 292 291 289 290 291 292 292 292 291 291 290 292 293 292 292 292 293 294 294 294 295 296 296 296 295 294 294 294 295 295 296 297 297 297 297 297 297 296 296 294 293 292 292 292 289 288 288 288 287 286 285 285 285 284 284 284 283 282 283 282 279 278 278 279 280 280 279 280 281 281 280 280 280 280 280 279 280 280 280
290 291 290 291 290 289 290 289 289 290 291 291 291 291 290 290 290 291 292 292 292 292 292 293 293 294 295 296 296 295 295 294 294 294 294 294 295 296 296 296 296 296 296 296 294 294 293 292 292 291 289 288 288 287 287 286 286 285 285 284 284 283 282 282 282 282 280 279 278 278 280 279 279 279 280 279 279 278 278 278 278 278 278 279 279
289 290 289 290 291 290 290 289 290 290 291 290 290 290 289 289 290 290 291 292 292 292 292 292 293 294 294 295 296 296 295 295 295 295 295 294 294 294 295 295 295 295 295 295 295 294 293 292 292 291 289 288 288 288 287 286 286 286 285 284 283 282 281 281 281 282 282 280 279 277 279 278 278 277 278 279 279 277 277 277 277 277 277 277 278
289 289 289 288 290 291 291 291 290 290 290 290 289 289 289 289 290 291 290 291 292 292 291 292 292 293 294 294 295 295 295 295 294 294 294 294 294 294 294 294 294 294 294 294 294 293 292 292 291 291 289 289 289 288 287 286 286 285 285 284 282 281 281 280 280 281 280 279 279 279 278 279 279 277 277 278 278 278 277 276 275 276 276 276 276
288 288 288 289 290 291 291 290 289 289 289 289 289 289 289 289 289 289 288 290 291 292 292 292 292 291 293 293 294 294 294 294 294 293 293 294 294 293 294 293 293 293 293 293 293 293 292 292 292 291 290 289 289 289 287 285 285 284 284 283 282 281 280 280 280 280 279 279 279 278 278 277 277 276 276 276 276 276 276 276 276 276 275 276 276
288 288 288 289 290 291 290 289 288 288 288 289 289 289 289 288 288 288 289 290 291 291 292 292 291 291 292 292 292 293 293 294 294 293 293 293 293 293 293 293 293 292 292 292 291 291 291 291 291 291 289 288 288 288 287 287 285 284 283 282 282 281 280 280 280 279 279 279 278 278 277 277 277 276 275 275 276 277 276 276 276 277 276 275 276
287 288 288 289 290 289 289 289 289 288 288 289 289 289 288 288 287 288 289 289 290 290 290 291 291 292 292 291 291 292 292 293 291 292 293 292 293 293 292 292 292 292 291 291 291 290 290 290 290 288 287 286 287 287 288 287 287 286 283 282 282 281 280 280 279 279 279 278 278 277 276 276 277 277 276 277 277 277 275 275 275 276 275 275 275
286 286 288 289 288 288 288 289 288 288 289 288 288 288 288 288 287 288 288 288 289 289 289 290 291 291 291 292 291 291 292 292 292 293 294 294 292 292 292 291 291 291 291 290 290 290 289 289 288 287 286 286 286 287 288 287 287 287 286 285 284 283 281 280 280 280 279 278 278 278 278 277 277 278 278 278 277 277 276 276 276 275 274 273 274
287 288 288 288 288 288 288 288 288 288 288 288 288 287 287 287 287 288 288 288 288 288 288 289 290 290 291 291 291 292 292 292 293 293 294 294 293 291 291 290 290 291 291 290 291 290 289 288 287 286 286 286 286 286 286 287 287 287 286 286 286 286 286 283 280 279 279 278 278 278 278 278 278 278 278 278 277 276 276 276 276 275 274 274 274
287 288 288 287 288 287 287 287 288 288 288 288 288 287 287 287 287 287 287 288 287 287 288 288 289 290 290 290 290 291 291 293 293 293 293 293 294 292 291 290 290 290 290 290 289 289 288 287 286 285 284 285 285 285 285 285 286 286 286 286 286 287 287 287 286 283 281 280 279 278 279 279 278 278 279 278 279 276 276 275 275 275 275 275 275
287 287 287 287 287 287 287 287 287 288 288 288 287 287 287 287 288 288 287 287 287 287 287 288 288 288 289 290 290 291 291 291 293 293 293 293 293 293 290 290 289 289 289 289 289 289 288 287 286 284 283 283 284 284 284 284 284 284 284 283 283 284 285 285 284 284 283 281 280 279 280 281 280 280 280 280 278 276 276 275 275 275 275 275 276
288 288 288 288 286 286 286 287 287 287 287 287 287 287 287 287 287 287 287 287 287 287 288 287 288 288 288 288 289 290 291 291 292 293 293 293 293 293 291 290 289 289 289 289 289 288 288 287 286 285 283 283 283 284 283 284 283 283 282 282 282 282 283 282 282 281 281 281 281 282 281 281 281 280 279 280 279 279 278 277 276 276 276 275 275
287 287 288 288 288 288 287 287 287 287 287 287 287 287 287 287 287 287 287 287 287 287 287 287 287 287 287 287 288 288 289 291 292 292 292 293 293 290 290 289 289 288 288 288 288 288 287 286 285 284 283 282 283 285 285 284 283 282 281 281 281 281 282 283 284 283 282 282 281 282 281 281 281 279 280 279 279 279 279 278 277 275 274 272 272
287 287 287 288 288 288 287 287 287 287 287 287 287 287 287 287 287 286 286 287 287 287 287 287 287 287 287 287 287 287 288 289 291 291 292 292 291 289 289 288 288 287 287 287 287 286 286 285 284 284 283 282 284 286 286 285 282 281 281 280 280 280 280 282 284 284 284 284 284 284 284 284 284 284 284 283 280 279 277 276 274 274 273 270 269
286 286 287 287 287 287 287 286 287 287 287 287 287 287 288 287 287 287 286 287 287 287 287 287 287 287 287 287 287 287 287 288 290 291 291 292 290 288 288 288 287 287 287 286 286 285 285 284 284 283 283 282 285 286 287 285 282 282 281 280 279 279 279 281 282 283 284 284 284 284 284 285 285 284 284 284 283 281 277 275 275 274 273 272 270
287 287 287 287 286 286 286 286 286 286 286 287 287 287 287 287 288 286 286 286 287 287 286 286 286 286 286 286 286 286 287 287 289 290 291 291 290 288 288 288 287 287 286 285 285 284 283 283 283 284 283 283 285 287 287 285 283 283 282 281 279 278 279 280 280 281 281 281 282 282 282 283 283 282 283 284 283 281 279 279 275 275 272 270 270
287 286 286 286 286 286 286 285 286 286 286 286 287 287 287 287 287 286 286 286 286 286 286 285 285 286 286 285 285 286 286 286 287 289 290 290 291 288 288 287 286 286 285 284 283 281 282 282 283 285 285 285 286 287 287 286 285 284 283 281 280 279 281 280 280 281 281 281 281 281 281 281 282 281 282 283 283 281 280 279 277 276 274 272 271
286 286 285 285 285 286 286 285 285 286 286 286 286 286 286 286 286 285 285 285 284 284 284 284 284 285 285 284 284 285 285 285 286 288 289 290 290 289 287 287 287 286 285 283 282 281 280 281 281 284 285 286 286 287 287 287 287 284 284 283 283 283 282 280 280 281 280 280 280 280 279 279 279 279 279 280 280 280 280 280 278 277 275 273 271
285 285 285 285 285 285 285 285 285 285 285 285 284 285 286 285 285 285 284 284 283 283 283 283 283 283 284 283 283 283 283 284 284 286 288 289 290 290 287 287 287 286 285 283 281 281 280 281 281 283 285 286 287 287 287 287 287 285 285 287 287 286 281 281 280 280 279 279 278 277 277 276 276 276 277 277 277 277 278 278 278 277 277 276 275
285 284 284 284 284 284 284 284 285 285 284 284 283 284 285 284 283 282 282 282 282 282 282 282 281 282 282 282 281 281 281 282 284 284 286 288 289 289 289 288 288 286 284 282 281 280 281 281 281 284 285 286 287 287 287 288 287 286 287 287 287 285 283 280 280 279 278 277 277 276 276 276 275 275 276 276 276 276 275 276 277 277 276 275 275
284 284 284 284 284 284 284 284 284 283 283 283 282 282 283 283 282 282 281 281 281 281 282 281 280 280 281 282 281 279 279 279 282 284 284 287 288 289 289 290 289 285 284 283 282 280 280 281 282 284 285 286 286 287 288 287 286 287 288 288 286 284 280 279 278 277 277 276 276 275 275 275 276 276 276 276 276 276 276 275 274 274 274 272 272
283 283 283 283 283 283 284 284 284 283 282 281 281 282 282 282 282 282 279 279 280 280 281 281 280 280 280 281 281 279 278 278 279 281 284 285 287 288 289 289 289 288 283 282 281 281 282 283 283 284 285 286 286 287 287 287 287 287 287 286 283 281 280 279 278 277 276 276 276 276 276 276 276 277 277 277 276 274 272 270 270 270 270 269 268
282 282 282 283 283 283 282 283 283 283 282 281 280 281 282 282 282 282 280 279 279 280 280 280 280 280 280 280 280 279 277 277 278 278 281 283 284 286 287 288 287 287 284 282 282 282 283 283 284 284 285 285 285 285 285 285 286 286 286 284 282 281 280 279 278 277 277 277 277 276 277 277 277 277 277 276 274 273 272 270 270 269 269 268 267
281 282 282 282 282 282 282 282 283 283 282 281 280 280 280 280 280 281 281 280 279 279 280 280 280 280 279 280 279 278 277 277 277 277 279 281 282 284 285 286 286 285 283 281 282 282 282 283 283 284 284 284 285 285 285 285 285 285 285 284 283 282 280 280 279 278 278 277 277 277 278 277 276 275 274 274 274 272 272 272 271 268 268 268 268
281 281 281 281 282 282 281 281 281 282 282 282 281 281 280 279 279 280 281 281 280 280 280 280 280 280 280 280 279 278 277 276 276 277 279 281 282 284 285 285 284 283 281 281 281 281 281 282 283 283 283 284 284 284 285 285 285 285 284 284 283 282 281 281 281 279 279 279 278 277 274 274 274 274 274 274 273 272 272 272 270 267 267 266 266
280 280 281 281 281 281 281 281 281 281 281 281 281 281 281 282 281 281 282 282 282 282 281 281 281 281 281 280 279 278 277 276 277 281 281 283 283 283 284 284 283 283 282 282 281 281 281 281 281 281 282 282 282 283 284 284 284 284 284 283 282 281 280 280 278 278 278 277 276 274 273 274 273 273 273 272 271 270 270 269 269 267 265 267 268
279 279 279 280 280 280 280 281 281 281 281 281 281 281 281 282 282 282 282 283 283 284 285 283 283 281 280 281 281 280 280 281 282 283 283 284 285 285 285 285 285 283 283 284 281 279 279 279 280 280 281 281 281 282 282 283 283 282 282 282 281 280 280 279 279 278 277 277 275 274 273 273 271 271 272 271 268 268 269 270 267 267 265 265 265
278 278 278 278 279 279 279 279 280 280 280 280 280 280 280 281 284 285 284 283 284 284 285 285 286 285 283 281 282 285 285 284 284 284 284 284 285 285 286 286 286 285 284 282 280 279 278 278 279 280 281 282 282 282 282 282 282 281 280 280 280 279 279 279 278 277 276 275 274 274 273 272 271 271 270 269 267 266 267 267 266 266 266 264 264
276 276 277 277 277 278 278 278 279 279 279 280 279 279 279 279 280 283 285 284 285 285 285 285 285 285 286 285 283 282 284 284 284 284 284 284 284 285 286 286 286 285 285 284 279 278 279 278 278 279 280 281 281 282 282 282 281 280 279 278 277 278 278 277 277 276 275 274 273 272 272 271 271 270 270 269 267 266 266 265 265 265 264 263 263
273 273 274 275 276 276 277 277 278 278 278 279 279 279 279 279 279 280 282 284 285 285 285 285 285 285 286 285 285 284 283 284 284 284 284 284 284 285 285 286 286 285 285 281 279 278 278 278 278 279 279 280 281 282 282 281 280 279 278 277 276 276 277 277 277 276 275 274 273 271 271 270 270 269 269 268 267 265 266 265 265 265 264 263 261
270 271 271 272 273 274 275 276 277 278 278 279 279 280 280 280 280 280 280 281 281 283 284 285 285 285 285 285 285 285 285 284 284 284 284 284 284 285 285 285 286 286 284 280 279 278 278 278 278 279 279 280 281 281 280 280 279 278 277 277 276 275 274 275 275 274 274 274 272 271 270 270 269 269 268 268 267 266 265 265 264 263 263 263 262
269 270 271 272 273 274 274 275 276 277 278 279 280 280 280 281 281 280 280 280 280 280 281 282 284 285 284 284 285 285 284 284 284 284 284 284 284 284 285 283 282 282 282 280 279 279 278 278 278 279 279 279 280 280 279 279 278 277 276 275 273 273 273 273 273 273 273 272 271 270 270 269 269 269 268 267 266 265 265 264 263 263 262 261 260
268 268 269 270 271 272 273 274 276 276 277 279 280 281 281 281 281 281 281 281 280 280 280 281 281 283 284 284 284 284 284 284 284 284 283 284 284 284 281 281 281 281 280 280 279 279 279 279 279 279 279 279 279 278 278 277 276 276 275 273 272 272 272 272 272 271 271 271 270 270 270 269 269 268 268 267 266 265 265 264 263 262 262 261 260
266 266 267 269 270 271 272 273 274 276 277 279 280 280 281 281 281 281 281 281 280 280 281 281 280 279 282 281 283 284 284 284 284 283 283 283 284 283 282 281 281 281 280 280 279 279 279 279 279 278 278 277 277 277 276 275 274 274 274 273 272 272 272 271 271 269 269 269 269 269 269 268 268 267 267 266 265 265 264 263 263 261 261 260 260
264 265 266 268 269 270 271 272 274 276 277 278 279 280 280 281 281 280 280 280 280 279 279 279 279 279 278 279 282 282 282 283 283 283 283 283 282 282 281 281 281 281 280 279 279 278 278 277 277 276 276 275 275 274 274 273 273 273 272 271 271 271 272 271 270 269 268 268 268 268 268 267 267 267 267 266 265 264 264 262 262 261 260 260 259
264 266 267 268 270 270 271 272 274 276 277 278 279 279 279 280 280 279 279 279 278 278 278 278 278 278 279 279 280 281 281 280 280 279 280 280 281 281 280 280 280 278 278 277 277 277 276 275 274 275 274 274 274 274 273 273 272 272 271 271 270 271 271 269 268 268 267 267 266 266 267 267 267 267 267 267 265 264 263 261 261 261 260 259 258
263 264 266 268 269 270 271 272 273 275 277 278 278 279 279 279 279 279 278 278 277 277 277 277 277 277 278 279 279 280 279 279 279 279 279 279 279 278 279 278 277 276 275 275 276 275 274 274 274 274 274 274 274 273 273 272 272 271 271 270 270 269 269 268 268 267 267 266 266 266 266 266 266 266 266 266 266 264 263 261 260 260 260 259 257
263 265 266 268 269 270 271 272 273 274 276 277 278 279 279 279 279 278 278 277 277 276 276 276 276 276 277 278 281 281 278 278 278 278 277 277 276 277 277 276 275 274 274 274 274 274 274 274 274 273 273 273 273 272 272 271 271 270 270 269 269 268 268 267 267 267 266 265 266 265 266 266 265 265 264 264 265 264 262 261 259 258 258 257 257
263 264 265 266 268 269 269 271 272 274 275 276 277 278 278 278 278 278 277 276 276 275 275 275 275 276 278 280 281 280 277 275 275 274 274 274 274 274 274 274 274 274 274 274 274 273 273 273 273 273 272 272 272 271 271 270 270 270 269 269 268 267 267 266 266 266 265 265 265 265 265 264 264 264 265 264 262 260 259 258 257 256 256 256 254
263 264 264 266 267 268 269 270 272 273 274 275 277 275 276 277 277 276 275 275 275 274 274 274 274 276 277 280 278 277 274 274 272 272 271 270 270 269 269 269 270 270 271 272 273 273 272 272 271 271 271 271 271 270 270 270 270 269 269 268 267 267 266 264 264 264 264 264 263 262 262 262 262 262 262 260 259 258 258 257 254 254 255 254 254
263 263 264 265 266 268 270 272 273 273 274 274 275 276 276 276 275 274 274 274 273 273 273 273 274 275 274 275 274 273 272 271 271 270 269 268 267 266 266 267 267 267 268 268 269 270 269 268 266 264 265 265 266 268 269 269 269 269 268 267 266 265 265 263 263 263 263 262 261 260 260 260 260 259 258 257 256 256 254 254 254 253 251 250 250
262 263 264 265 267 269 271 272 272 273 273 274 275 274 273 274 274 273 273 273 271 272 272 273 272 271 271 272 272 271 269 268 267 267 267 266 265 265 265 265 265 265 266 265 266 266 266 265 264 263 262 261 262 262 263 264 266 268 268 267 266 265 264 264 264 263 262 262 260 259 258 258 257 257 257 255 254 254 253 253 252 253 251 249 249
263 263 265 266 268 269 270 271 271 272 272 273 273 272 272 272 272 272 271 271 271 271 271 271 270 270 269 269 268 268 268 267 266 265 264 264 264 263 263 263 262 263 263 263 264 265 265 265 265 264 263 261 261 260 259 259 260 261 263 264 265 264 263 261 259 259 260 260 259 258 257 256 255 255 255 253 253 253 253 251 250 253 252 251 251
263 265 267 267 268 268 269 269 270 270 271 271 271 270 270 270 270 269 269 269 270 269 269 269 268 268 267 267 267 266 265 264 264 263 263 262 262 262 261 261 261 260 260 261 262 263 263 263 263 262 261 261 260 259 258 257 257 256 256 257 257 256 256 256 257 258 257 257 257 257 256 256 254 252 254 253 252 253 253 252 252 252 251 251 251
265 265 266 266 267 267 267 268 268 267 268 268 267 267 267 267 268 267 268 268 269 268 267 266 266 265 265 264 264 264 263 263 262 261 261 260 261 261 260 260 259 259 259 259 259 259 260 260 259 259 259 258 258 257 257 257 257 256 255 253 253 253 253 253 253 253 254 254 255 255 255 255 253 253 253 253 253 252 252 252 251 250 250 251 250
264 264 264 265 265 265 265 266 266 266 266 266 266 266 266 266 266 266 266 267 266 266 265 264 263 263 262 262 262 261 261 261 261 260 259 259 259 259 259 258 258 258 258 257 257 257 257 257 257 258 257 257 257 256 256 256 255 255 255 255 255 255 254 252 252 252 253 253 253 254 254 254 253 253 253 252 252 252 253 252 251 251 249 249 249
262 263 263 263 263 264 264 265 265 265 265 265 264 264 264 264 264 264 264 264 264 263 263 262 262 261 261 261 261 261 260 260 259 259 258 258 258 258 258 258 258 257 256 256 256 256 256 256 255 256 256 256 255 255 255 254 254 254 254 258 259 257 255 255 253 253 253 252 253 254 254 253 252 252 252 252 251 251 252 251 250 250 249 249 249
261 261 262 262 262 262 262 262 262 263 263 263 263 263 262 262 262 262 262 262 261 261 261 261 261 260 260 260 260 260 259 259 259 258 258 258 257 257 257 256 256 256 255 255 255 255 254 254 254 254 254 254 254 254 254 253 252 253 257 260 259 258 256 255 254 254 253 252 252 253 253 253 252 251 251 251 250 251 251 251 249 249 249 249 249
Wind_Speed
6 8 5 7 6 8 7 6 7 7 7 7 8 9 7 7 7 6 5 7 5 7 8 8 8 9 9 9 9 9 10 9 8 7 8 9 9 9 9 10 12 11 10 11 10 11 12 13 13 12 9 8 8 7 8 9 9 8 9 9 11 9 8 8 8 3 1 3 1 4 5 9 7 8 9 7 6 6 6 6 6 6 6 6 5
6 6 5 5 7 7 6 5 7 6 8 7 9 9 7 6 6 5 7 7 6 8 9 8 8 9 9 10 9 9 9 10 9 8 9 10 11 9 9 10 11 12 10 12 12 11 11 12 13 11 9 11 10 9 10 10 10 10 9 9 10 10 9 10 7 7 6 2 3 2 3 5 6 6 10 9 7 6 8 6 5 6 6 5 5
4 4 5 6 7 6 6 7 6 6 7 8 9 10 9 7 6 7 8 7 6 8 8 9 9 9 10 10 10 9 9 9 8 9 10 11 12 11 10 11 12 13 12 13 13 12 12 13 14 12 9 10 10 11 10 10 10 12 13 10 11 9 7 6 6 5 8 5 4 5 4 4 3 6 6 5 6 7 8 7 6 5 4 5 5
5 5 5 7 6 5 7 6 5 7 8 9 9 8 6 6 6 8 9 7 9 8 8 9 8 9 10 10 10 9 9 9 8 9 11 12 12 12 11 11 11 12 14 14 13 13 14 14 14 13 11 13 12 11 10 10 11 12 12 11 11 11 9 8 7 6 6 8 5 6 5 6 1 4 5 4 5 5 6 4 4 5 5 5 5
4 5 5 6 6 6 7 5 7 9 10 8 9 7 6 7 6 9 8 9 8 7 9 8 9 10 11 11 11 10 10 9 10 11 11 10 11 12 12 11 12 13 13 13 13 13 14 15 14 11 11 13 11 10 10 12 12 11 12 11 10 9 8 9 7 8 10 10 7 2 5 3 2 3 5 7 3 3 3 5 5 5 4 4 3
5 5 4 6 7 7 8 6 8 9 9 8 8 7 7 7 8 7 8 9 8 9 9 8 9 11 11 11 11 11 10 10 11 12 12 11 12 11 12 12 12 12 13 13 12 12 13 14 14 13 13 15 15 13 13 15 13 12 13 11 10 9 10 8 8 9 10 10 11 6 4 6 3 3 4 5 6 4 3 2 2 2 3 3 4
5 5 5 5 7 9 8 8 8 7 7 8 6 7 8 8 7 9 7 8 9 9 9 10 9 10 11 11 11 11 10 10 11 11 11 11 12 12 12 12 12 11 12 12 12 11 12 13 13 13 15 15 15 15 15 14 13 14 14 13 10 9 9 9 8 9 9 9 4 5 7 3 5 4 1 2 2 3 5 4 3 3 3 4 4
5 5 5 6 8 10 9 6 6 7 6 6 7 7 7 7 8 7 6 9 10 11 11 11 9 8 11 11 10 10 10 10 11 11 11 11 11 12 12 12 12 11 11 11 11 12 12 13 14 14 15 16 16 14 13 13 12 13 11 11 11 11 10 7 8 8 9 8 8 7 5 6 4 4 4 4 2 2 4 4 6 5 5 4 4
5 5 5 7 9 7 6 5 5 5 6 7 7 8 7 7 7 7 8 10 10 10 9 9 9 10 10 10 10 9 10 11 10 10 10 11 11 12 12 12 12 12 11 11 11 11 11 12 13 13 15 16 19 16 16 16 14 13 10 11 12 12 9 8 8 8 6 8 6 4 6 6 6 7 6 7 11 9 5 5 5 4 3 3 3
5 5 6 8 7 6 6 6 6 6 6 7 8 7 6 7 7 8 10 10 9 8 8 8 9 12 11 11 10 10 10 10 12 17 14 11 11 10 10 12 12 12 11 11 12 12 13 12 11 16 17 18 18 19 19 19 17 15 15 14 14 12 11 11 9 9 10 10 9 9 8 8 9 10 10 8 4 4 6 6 7 4 4 3 2
4 5 7 7 6 6 6 7 5 7 7 7 7 6 7 7 7 9 9 8 9 9 8 10 11 10 12 12 12 11 11 10 16 17 19 20 13 11 12 12 11 12 12 12 13 13 12 12 11 12 14 14 15 18 18 20 20 16 18 21 20 19 16 14 12 11 11 9 8 8 9 9 9 8 8 7 6 7 6 6 6 5 5 4 5
6 6 6 7 7 7 6 6 6 7 7 8 7 6 6 7 8 9 8 9 9 7 9 11 11 11 11 11 12 12 11 13 17 18 19 20 18 13 11 11 11 12 12 13 12 12 12 11 10 9 10 12 11 13 16 19 18 18 19 18 18 19 21 18 14 9 9 10 9 10 9 10 9 8 8 8 8 6 6 6 6 7 6 5 4
6 7 6 6 7 6 6 6 7 8 8 7 6 6 7 8 9 8 10 9 6 8 11 10 12 11 11 13 13 13 12 14 17 20 19 19 20 17 11 12 11 12 12 13 13 12 11 10 10 9 9 14 12 11 11 12 16 17 16 16 15 16 17 18 18 18 13 11 12 11 12 10 9 10 10 9 7 8 7 6 6 6 6 5 5
6 7 6 6 7 6 7 7 8 8 7 7 6 7 7 10 9 8 7 6 8 10 10 11 11 11 12 12 13 12 13 14 18 19 19 20 20 18 12 12 12 12 13 13 12 12 12 11 11 11 10 11 11 11 10 10 11 12 12 11 10 11 12 12 10 9 10 13 12 13 11 9 10 9 9 9 11 9 9 8 6 6 7 6 3
9 8 9 8 6 6 7 6 7 8 7 7 7 8 8 9 8 8 7 9 9 11 11 11 12 11 11 11 12 13 13 15 17 19 19 20 20 18 13 12 12 12 12 12 12 12 12 12 12 12 11 11 10 12 12 12 12 11 11 10 10 9 9 10 9 8 9 7 10 9 9 8 5 7 9 9 9 8 9 9 9 6 3 2 3
8 8 10 10 9 8 8 9 9 8 7 7 7 9 8 9 10 8 7 8 8 8 9 9 11 11 11 11 12 14 13 15 17 18 20 19 20 13 12 12 12 12 11 11 11 10 10 11 11 11 10 11 13 19 14 10 12 13 12 10 8 8 7 6 9 9 8 7 6 6 6 8 8 8 9 8 6 6 6 6 6 5 6 4 5
8 9 9 9 10 10 9 10 11 10 10 10 10 10 9 10 8 5 8 9 9 10 10 10 9 10 11 11 13 14 13 13 17 19 19 20 16 11 11 10 11 12 12 9 10 10 9 9 10 9 10 11 13 19 19 18 13 16 15 13 11 9 8 6 11 13 12 10 11 10 11 13 13 13 14 14 10 9 8 7 7 7 6 6 4
7 7 8 9 9 9 9 8 10 11 10 11 12 11 9 8 8 5 8 9 10 10 8 10 10 10 11 12 12 13 14 12 16 18 19 19 17 12 11 11 12 12 11 9 8 8 9 13 11 10 11 10 15 23 22 19 15 15 15 15 13 10 7 7 7 7 11 11 12 12 12 12 13 14 15 16 16 12 10 10 8 7 7 6 6
8 9 10 9 9 9 8 8 9 10 11 12 10 12 11 10 9 5 8 8 10 9 7 9 10 9 10 12 13 15 14 11 14 17 19 19 17 11 11 10 11 11 9 9 8 7 7 9 15 12 10 11 20 20 23 18 13 14 14 14 13 13 11 11 10 10 9 8 7 8 7 10 9 8 9 16 17 13 8 6 8 8 7 6 5
10 9 10 10 9 10 8 9 10 9 11 12 11 11 10 9 9 8 8 7 9 9 8 9 11 12 9 10 11 12 13 12 11 17 18 19 21 13 10 11 13 11 9 9 8 7 7 7 12 18 16 17 20 22 24 23 16 13 13 14 14 14 10 11 11 10 11 10 9 9 8 7 7 7 6 8 10 11 8 7 8 7 7 6 6
9 9 9 10 10 10 9 7 11 11 8 10 11 11 9 9 10 8 9 8 8 10 10 9 10 12 9 9 10 11 11 12 11 16 18 19 21 19 12 13 11 10 10 9 9 9 8 8 8 15 19 20 22 24 26 26 23 16 16 14 13 13 14 11 14 14 10 9 8 8 7 6 6 6 6 6 5 7 7 6 6 6 7 6 6
8 8 10 10 11 11 10 10 8 9 10 8 10 12 10 7 9 9 8 8 10 12 10 9 9 11 10 9 9 11 10 13 11 13 18 19 20 22 14 12 11 10 10 9 8 8 9 8 8 14 21 21 23 26 28 22 26 15 14 14 16 18 15 12 11 10 8 8 8 7 7 7 7 6 6 6 6 6 6 6 6 6 5 7 8
8 9 10 11 11 11 11 11 11 8 9 8 8 12 11 9 9 8 8 9 10 12 12 10 9 11 11 9 8 9 8 9 14 12 15 19 20 21 22 15 15 12 10 10 10 8 7 8 9 18 23 25 26 26 26 24 21 13 17 17 17 19 15 9 10 9 9 8 8 8 8 8 7 7 7 6 5 6 6 6 5 5 4 3 3
9 10 11 11 12 12 12 12 11 9 9 9 9 11 12 10 8 8 7 8 10 11 11 9 8 11 12 12 9 7 7 8 10 15 13 17 19 21 21 21 17 11 10 9 7 7 8 8 9 19 22 24 25 23 20 21 16 16 18 19 20 18 10 10 9 9 8 8 9 8 8 8 7 7 7 7 7 6 5 5 5 5 5 5 5
11 11 12 12 12 11 12 12 12 10 9 7 9 11 11 9 10 9 6 8 9 10 11 8 9 11 11 12 11 7 7 7 8 10 15 15 17 18 20 19 19 18 10 6 7 8 10 15 19 21 21 22 23 21 18 22 24 19 21 20 16 10 10 10 10 10 8 9 9 8 8 8 9 8 7 7 6 6 7 5 6 6 7 7 7
14 14 14 13 13 12 13 13 13 10 10 7 8 9 10 11 10 10 8 8 8 9 11 9 9 10 11 12 10 9 6 7 8 7 8 10 12 17 18 18 19 18 15 10 13 16 18 18 21 22 21 20 16 14 12 13 18 18 19 18 11 10 10 10 10 11 11 9 9 9 8 7 7 6 7 7 7 7 7 7 7 5 6 6 6
14 14 14 13 13 13 13 11 12 12 11 8 7 8 8 9 9 10 10 9 9 9 10 10 10 10 11 11 10 8 8 7 7 6 6 7 8 9 11 12 16 16 12 8 11 11 15 15 13 17 14 20 19 16 12 12 13 13 12 12 11 10 10 11 12 12 10 9 8 6 6 6 6 7 7 7 6 5 6 7 6 6 5 5 6
13 15 16 13 11 11 11 14 14 11 12 11 10 10 9 8 9 11 11 10 9 10 10 10 12 11 10 10 9 8 8 7 7 6 8 9 9 9 9 8 9 9 9 9 9 10 10 11 14 12 12 13 14 11 10 10 11 10 11 10 10 10 11 11 9 8 8 7 6 6 6 7 7 7 6 6 6 5 5 6 7 6 5 6 5
14 15 15 12 13 11 10 11 11 11 12 12 11 10 11 11 10 12 12 9 9 11 11 11 12 9 9 10 9 10 9 9 9 11 11 9 10 9 9 9 9 9 11 13 9 9 9 10 11 12 12 13 14 14 12 11 11 10 10 10 10 10 9 9 9 8 8 8 8 8 8 6 7 6 6 6 6 6 5 5 4 8 4 4 5
13 13 12 12 12 12 12 12 12 11 11 12 12 13 12 15 14 13 13 12 15 19 16 13 11 7 9 10 9 11 12 10 8 14 15 14 16 16 14 14 14 12 14 21 14 10 11 11 11 12 12 12 13 13 14 12 12 11 10 9 10 10 9 9 8 8 8 8 7 7 7 7 8 7 7 7 6 5 5 7 6 6 6 5 5
12 12 12 11 12 13 13 13 13 12 12 12 11 12 14 13 14 20 22 20 17 17 19 22 22 18 12 10 9 15 15 6 10 13 16 17 18 18 16 16 18 18 20 16 12 12 11 11 11 11 11 11 12 13 12 12 12 11 9 9 8 9 9 8 7 8 8 8 7 7 7 8 8 7 7 7 9 8 5 4 6 5 6 6 5
12 13 13 13 14 13 12 13 13 13 12 11 10 11 12 14 16 13 15 19 20 20 21 21 20 20 20 17 11 8 10 11 12 14 17 18 18 19 19 19 20 21 23 20 12 11 11 11 11 11 12 12 12 11 11 11 10 10 9 9 8 8 9 8 8 9 8 8 8 7 7 7 7 7 7 7 7 9 8 8 5 6 4 4 4
13 14 15 15 14 15 14 13 12 12 13 13 12 10 10 11 13 16 12 11 18 20 19 19 19 19 19 19 19 15 13 12 14 15 16 18 18 19 18 21 23 24 25 16 11 10 10 10 10 10 11 11 10 10 10 10 9 9 9 9 8 7 6 7 9 8 8 8 8 7 7 7 7 7 7 7 8 8 6 7 5 5 5 5 3
15 13 13 14 14 14 13 13 13 13 12 12 12 12 12 11 12 12 14 13 9 11 15 18 18 18 19 19 18 17 15 14 13 14 15 16 17 18 19 15 22 26 22 11 11 10 9 9 9 10 10 9 9 8 8 7 7 7 7 6 6 7 7 8 8 8 7 8 7 7 7 7 7 8 7 6 6 6 6 6 6 6 5 5 6
14 16 22 16 11 13 13 12 13 13 13 13 12 12 12 12 11 11 12 12 12 12 10 9 13 17 15 14 15 15 13 13 14 14 16 16 18 19 19 12 13 15 16 11 10 10 10 10 9 9 9 10 10 10 9 8 8 8 8 7 7 7 7 8 8 8 8 7 7 7 7 8 7 7 8 8 7 6 6 6 5 6 6 5 5
14 13 14 14 12 11 12 12 12 12 13 13 13 12 12 12 11 11 11 11 12 12 11 9 7 9 16 15 12 12 15 14 14 16 16 18 18 19 12 11 9 11 10 9 9 9 8 8 8 8 8 8 7 8 8 8 8 8 7 9 9 8 8 8 7 8 7 8 8 8 8 7 8 7 6 7 8 7 6 6 5 5 5 6 5
13 13 13 12 12 12 12 12 12 13 14 14 14 13 12 11 11 11 10 11 11 10 10 8 4 5 7 6 8 10 13 15 15 15 16 17 20 15 9 8 8 8 9 8 8 8 8 7 7 7 7 7 7 7 7 8 7 8 7 8 8 9 8 8 9 8 9 8 8 8 9 8 8 8 8 7 6 6 6 6 6 6 6 6 6
14 13 12 13 13 14 13 13 14 18 14 12 12 12 12 12 11 11 11 11 11 10 9 7 6 7 8 7 7 6 8 11 13 13 13 13 11 9 8 6 7 8 7 6 7 7 6 5 6 7 6 6 7 6 7 7 7 8 8 8 8 8 11 10 10 9 9 8 8 8 8 8 8 7 7 8 7 7 7 7 7 6 6 7 6
13 18 22 23 18 14 13 14 14 13 12 11 11 12 12 11 11 10 10 9 9 9 7 7 7 7 7 5 5 6 7 7 7 7 7 7 6 5 4 4 4 5 6 6 6 6 6 6 5 6 6 6 7 7 7 8 8 8 8 9 8 8 10 8 9 9 9 8 8 7 7 7 7 7 7 7 8 8 7 7 7 7 7 7 7
14 13 14 20 15 15 14 14 14 13 12 11 11 11 12 11 10 10 9 9 9 8 7 7 7 5 3 3 5 5 7 7 6 6 6 7 5 5 6 6 5 6 6 7 6 6 7 6 6 6 6 6 7 7 7 8 8 8 8 9 9 9 9 9 9 9 8 8 8 7 7 7 7 7 6 7 7 7 8 7 7 7 7 6 6
13 14 15 16 17 16 15 15 13 13 11 11 11 11 12 11 10 9 9 8 8 7 6 5 4 2 3 4 7 5 3 3 3 3 3 4 4 5 5 5 6 6 6 6 6 6 7 7 6 6 6 6 6 7 7 7 8 8 8 7 8 8 8 7 8 7 8 7 7 7 6 7 7 7 7 5 5 6 6 6 6 5 6 5 6
13 14 14 14 15 14 14 15 14 14 13 13 12 12 11 10 9 8 7 7 5 4 4 3 2 2 4 8 7 7 6 4 5 5 5 5 5 6 6 6 5 6 6 6 6 7 6 7 6 6 7 7 7 7 7 7 8 8 8 8 8 8 8 7 7 7 7 7 6 7 6 6 7 6 7 6 6 5 6 6 6 6 5 6 5
14 14 13 14 14 14 14 14 14 13 12 12 10 11 10 10 8 5 5 4 4 4 4 4 3 3 3 6 8 8 6 5 6 7 6 6 6 6 6 5 5 5 6 5 5 6 6 6 6 5 5 6 7 8 8 8 8 8 8 8 8 8 8 7 6 6 6 6 6 6 7 6 6 6 5 5 5 6 6 6 5 5 6 6 6
12 13 14 14 14 14 13 11 11 9 10 12 13 11 7 6 5 4 4 4 4 4 4 4 4 4 4 5 6 5 5 5 6 6 7 6 6 6 6 5 6 6 6 6 6 6 7 7 7 6 5 5 5 5 6 6 7 8 8 8 8 7 7 7 7 7 7 7 7 7 6 5 6 6 5 5 5 6 5 5 5 5 5 5 6
10 12 13 13 13 12 12 11 11 12 12 10 9 7 3 4 4 3 3 4 3 3 4 4 4 5 4 4 4 5 5 5 5 5 6 6 6 5 5 5 6 6 6 6 5 6 7 8 7 7 7 5 5 6 6 6 5 6 7 8 8 7 7 7 7 7 7 8 7 6 6 6 6 5 6 6 6 5 6 5 6 5 5 4 5
10 11 12 12 13 12 11 11 10 11 10 8 6 4 2 1 0 2 2 3 3 4 4 4 4 4 4 5 5 4 5 5 5 6 5 5 5 4 4 5 5 6 6 5 5 6 6 7 7 7 7 7 7 6 6 6 6 6 6 5 6 6 5 6 6 7 6 7 7 6 6 6 6 6 6 6 6 6 5 5 4 6 6 7 6
11 10 11 11 11 11 10 9 8 8 7 6 4 3 1 1 2 2 1 2 4 3 4 4 4 5 4 5 5 5 4 5 5 5 6 5 5 5 5 6 6 6 6 6 6 6 7 7 7 8 8 8 9 10 8 7 9 7 6 6 7 7 6 6 5 6 6 6 7 7 7 6 6 5 6 6 5 5 5 6 7 6 6 6 6
10 10 9 9 9 8 8 7 7 7 5 5 5 4 3 3 3 2 2 3 4 4 5 5 5 5 4 4 5 5 6 6 6 5 5 5 6 5 6 8 9 8 9 8 7 7 8 9 8 10 11 11 11 10 9 8 7 7 7 8 7 6 7 7 6 6 6 6 6 6 7 7 6 6 6 7 6 6 6 5 4 4 5 5 5
10 9 9 8 7 7 6 6 5 5 5 5 5 5 4 4 4 4 4 4 4 5 5 5 5 4 5 5 4 5 5 5 6 5 5 6 6 7 7 6 6 5 5 6 5 6 9 9 9 9 9 9 8 7 7 7 6 6 6 6 8 11 9 8 7 6 7 7 6 6 6 7 7 6 7 6 6 6 5 5 5 5 4 4 4
9 9 9 8 7 7 6 5 5 4 4 4 5 4 5 4 5 4 5 5 5 5 5 5 5 4 4 5 4 5 5 5 5 5 5 5 6 6 6 5 5 5 6 5 5 6 8 9 8 7 7 6 6 6 6 6 6 6 6 7 11 11 10 9 9 8 7 6 7 6 7 6 6 6 5 6 6 6 5 5 5 6 5 5 5
10 9 9 8 7 7 6 6 6 6 5 5 5 5 5 4 4 4 5 5 5 4 5 5 4 5 5 5 4 5 5 6 6 6 6 5 5 4 4 5 5 5 5 5 5 7 8 7 7 8 7 6 6 6 5 6 6 5 7 11 12 10 10 8 7 6 8 6 5 6 6 7 6 6 5 5 5 5 6 5 6 5 5 5 4
Wind_Direction
227 236 222 228 225 228 225 217 225 220 229 226 233 237 237 230 230 227 217 226 204 215 216 215 214 215 220 224 223 223 230 237 237 239 237 237 231 225 220 215 219 223 218 219 217 216 218 220 221 218 207 207 215 209 205 205 201 207 203 194 198 189 185 196 209 194 319 24 211 178 158 146 168 179 170 171 166 176 179 195 187 197 206 214 213
235 246 237 237 231 234 232 231 228 222 226 226 232 240 239 232 228 226 229 230 206 220 220 218 215 216 219 223 224 225 227 232 230 228 234 236 236 227 224 218 221 224 218 222 217 217 216 219 222 217 202 206 201 203 202 197 197 200 204 204 209 203 189 177 192 165 186 65 47 38 138 167 145 173 175 168 176 164 185 189 188 197 206 203 211
262 250 246 244 244 238 235 233 225 230 236 239 237 230 221 220 212 223 232 231 222 222 222 219 218 217 222 224 222 222 224 228 226 223 230 233 235 233 226 220 220 221 220 221 218 213 215 218 221 212 199 202 203 203 195 200 199 200 203 201 205 203 198 190 154 163 157 169 140 162 172 186 154 172 173 169 165 171 179 185 189 190 202 202 215
264 253 248 250 248 246 242 241 233 236 236 237 241 244 243 237 217 223 227 220 222 221 217 220 218 219 226 227 225 223 223 222 222 224 229 230 234 236 231 228 226 225 223 221 218 212 215 218 221 211 199 206 207 202 200 197 196 202 203 202 202 196 191 191 193 143 156 153 177 172 171 159 98 121 150 144 146 160 179 161 156 186 195 199 212
268 260 250 261 263 253 255 240 236 238 240 242 244 242 235 232 222 227 228 230 229 226 228 219 219 219 224 228 227 225 224 218 221 226 228 229 233 235 235 233 230 229 226 224 219 214 214 216 218 207 197 207 208 204 200 201 203 202 204 200 202 197 184 185 174 154 149 162 148 133 141 113 95 120 154 151 149 146 140 169 174 182 188 201 212
264 265 257 256 261 254 251 244 239 243 245 248 247 245 238 231 231 232 225 234 230 229 227 220 219 224 225 228 227 227 222 217 220 226 227 226 229 232 235 234 234 231 231 228 223 216 214 216 213 202 199 204 210 207 201 203 201 203 205 201 196 183 182 179 162 159 156 158 155 134 163 152 124 149 185 164 156 163 162 158 131 173 178 216 228
278 269 266 254 263 260 254 246 245 247 247 249 249 243 238 235 231 236 227 231 232 234 230 229 225 225 229 229 228 226 224 220 222 226 228 227 228 230 232 235 235 234 234 231 227 220 217 216 213 205 205 208 210 206 202 202 200 204 203 198 186 173 180 170 157 150 144 139 137 143 144 142 145 141 93 152 136 171 175 152 201 179 185 201 240
283 275 267 263 257 262 259 258 254 252 252 248 245 242 241 237 236 240 232 233 233 234 232 229 230 223 231 231 232 227 225 224 225 227 227 227 227 230 230 231 233 234 234 232 228 224 220 218 216 211 209 211 210 207 197 198 196 201 196 178 170 170 169 156 148 142 143 145 156 158 160 142 111 85 93 123 128 261 203 168 196 190 199 197 209
292 286 280 269 268 273 286 284 269 260 252 252 249 246 241 238 236 232 230 235 234 235 237 233 231 232 235 233 234 228 226 226 225 223 225 227 227 231 230 230 229 231 231 231 228 227 225 223 221 217 214 215 211 206 201 194 188 190 183 166 171 170 160 159 149 144 140 143 134 110 138 158 169 152 163 183 201 198 163 165 198 191 146 167 234
278 283 274 271 277 284 281 278 273 266 263 256 255 252 247 241 236 235 236 236 240 238 238 234 230 233 234 234 232 229 229 228 223 221 219 223 222 226 227 228 227 228 228 230 230 226 227 224 224 221 217 215 211 209 204 200 199 191 174 174 172 164 162 159 160 158 156 159 164 161 167 185 185 188 188 199 168 120 134 165 194 179 130 186 286
282 271 277 280 284 285 284 280 281 274 265 264 261 256 250 243 240 240 241 239 239 238 234 236 235 235 235 235 232 231 231 228 224 221 222 222 222 225 224 227 224 226 226 226 229 226 227 225 225 221 219 217 216 213 206 202 201 194 185 182 177 169 165 165 168 165 160 162 160 167 179 188 195 186 194 179 181 183 170 169 177 158 180 179 223
308 299 288 294 293 293 292 295 290 280 278 270 265 259 254 247 246 244 245 243 240 234 235 235 238 236 237 238 237 236 235 228 224 225 224 224 221 225 228 228 224 224 223 225 228 227 225 223 222 217 214 212 207 207 206 201 198 191 189 192 191 181 169 161 154 153 157 154 164 185 179 196 184 177 190 179 184 174 174 169 179 176 179 192 188
320 312 308 302 296 298 298 295 288 285 280 278 274 267 254 254 251 248 246 242 240 234 237 238 240 238 237 240 241 238 241 231 227 227 226 226 225 224 232 230 230 228 222 222 224 225 222 219 219 212 210 204 202 204 200 198 197 192 185 188 184 176 170 164 160 167 168 162 172 177 191 183 175 195 186 181 165 169 163 176 182 184 188 191 204
331 318 314 310 308 307 301 295 287 283 286 287 281 271 262 257 257 252 256 249 238 244 241 239 241 238 237 239 244 244 241 235 229 229 227 226 226 225 232 230 232 232 228 222 221 221 217 214 214 213 204 197 197 194 192 190 184 177 176 175 170 157 138 127 110 113 154 168 170 186 194 169 189 176 175 163 161 173 170 186 175 182 189 201 176
335 334 330 323 317 307 298 288 287 290 288 286 282 272 265 268 264 255 248 246 242 242 242 242 242 239 241 238 244 246 243 235 232 230 228 226 225 225 231 231 234 236 233 228 224 222 216 215 213 212 201 196 191 187 186 182 172 167 163 163 162 157 151 156 157 152 163 176 183 183 164 172 160 162 160 167 169 168 175 177 175 174 140 82 56
327 334 332 330 327 323 319 315 310 305 298 289 278 273 268 259 263 258 249 251 245 249 252 243 248 244 239 237 242 248 246 235 233 231 228 227 225 226 230 230 234 235 234 231 228 225 221 212 208 206 197 196 193 187 182 166 164 159 159 160 158 157 168 161 150 147 162 165 160 147 154 157 150 159 158 155 140 134 119 103 108 118 133 151 197
328 328 325 321 321 320 321 316 312 311 309 304 295 286 282 276 266 249 255 252 249 247 246 244 243 243 243 237 239 249 251 234 232 232 228 227 224 229 229 231 235 235 235 229 228 225 220 210 205 201 194 200 190 181 176 169 165 167 165 163 162 166 169 147 150 157 159 148 140 136 145 160 161 156 156 156 148 142 128 132 166 153 153 178 216
315 315 312 313 311 312 310 309 306 305 305 299 295 292 285 275 273 249 249 262 256 251 248 253 247 240 242 242 235 245 251 235 230 233 229 225 220 225 226 227 234 233 235 227 225 224 217 206 198 197 197 194 183 184 174 169 173 172 166 162 167 166 156 148 141 152 156 148 146 148 156 165 168 166 166 169 165 155 158 180 170 156 182 184 196
323 322 315 311 306 304 302 300 296 296 296 293 291 290 288 283 280 263 253 255 261 264 252 253 257 246 241 244 242 241 252 243 229 232 228 225 221 225 226 229 234 232 226 229 218 215 208 202 199 198 194 185 186 178 172 172 175 174 169 162 167 173 174 164 161 154 159 157 162 162 176 182 178 173 180 181 178 171 182 166 147 170 177 181 166
316 314 311 310 308 305 300 297 292 289 289 291 290 282 283 288 281 271 264 251 263 263 256 254 259 259 246 245 246 240 246 247 229 230 227 224 220 220 224 227 231 228 219 220 210 206 196 194 202 205 194 185 181 176 176 178 181 177 172 175 171 180 166 165 172 170 172 171 170 172 176 173 172 165 174 184 185 176 183 166 165 165 166 171 174
309 305 306 304 303 300 296 286 287 288 277 279 286 286 280 278 281 275 272 268 258 265 258 256 258 263 256 246 249 246 240 246 238 226 229 225 222 219 225 226 227 222 222 213 209 201 194 192 188 197 188 177 179 182 179 187 188 181 180 176 177 166 154 169 180 175 168 165 166 171 166 163 162 158 166 175 164 165 176 172 165 168 161 166 172
295 297 297 298 297 296 293 291 277 276 284 281 284 285 279 265 267 273 271 267 267 265 262 256 257 262 262 248 247 252 244 240 245 234 230 228 226 223 225 228 217 217 219 216 206 203 192 184 183 186 181 176 184 186 186 187 189 183 186 172 162 152 161 169 165 166 166 162 162 169 166 161 163 165 170 174 173 157 158 162 167 173 178 174 175
299 300 300 299 298 296 295 292 291 288 283 280 276 280 285 282 270 265 265 269 264 266 265 259 256 263 265 255 243 245 244 242 240 238 233 230 230 229 228 228 216 212 212 213 206 197 183 183 178 177 177 182 189 189 187 188 187 183 170 162 152 150 157 150 157 157 160 161 165 175 173 169 170 175 177 179 179 163 159 161 160 153 128 84 80
307 305 303 300 300 299 298 295 289 285 281 283 280 276 281 279 273 264 254 256 263 265 266 261 258 263 264 267 253 232 231 233 237 235 233 230 231 231 231 228 214 207 208 212 189 181 177 174 174 179 184 186 190 188 185 188 189 176 161 158 151 152 148 150 150 156 151 159 175 174 176 179 172 172 183 176 169 167 144 126 109 106 111 99 88
308 304 302 300 298 296 298 295 294 292 286 274 279 282 280 278 278 271 243 249 252 258 266 261 253 259 264 263 265 246 226 227 232 233 233 234 234 235 235 230 221 209 200 196 172 180 177 176 178 182 186 186 190 188 188 193 192 170 166 157 147 148 152 151 152 151 153 175 180 176 175 181 181 175 162 156 139 113 108 89 84 83 88 91 80
312 308 305 303 301 301 301 299 296 290 285 273 262 264 272 280 275 277 265 251 253 254 263 262 256 257 259 262 263 259 238 227 231 226 228 234 237 238 235 228 219 207 195 186 181 177 179 175 176 182 186 188 192 193 194 187 185 169 163 154 156 156 155 152 154 159 170 175 175 178 176 163 166 158 148 140 141 150 135 121 118 115 128 125 101
304 301 299 301 302 303 301 300 301 302 296 286 266 265 264 264 266 269 264 259 256 256 257 258 259 256 257 261 262 256 244 233 228 220 215 220 224 230 230 227 204 193 191 175 171 174 176 175 180 185 186 189 192 194 191 173 178 173 169 166 166 163 162 160 164 168 167 167 169 165 158 151 124 125 144 151 149 138 145 143 141 138 133 133 127
301 299 298 299 295 296 297 294 295 294 295 294 291 288 272 247 254 257 260 251 247 254 251 250 250 250 256 257 257 254 247 234 221 210 221 217 220 215 216 210 197 188 183 179 174 171 170 175 180 186 188 190 192 192 192 184 184 180 176 170 166 163 167 166 157 153 149 145 132 126 121 137 150 149 139 145 143 135 142 152 147 136 142 130 121
299 296 297 300 296 297 293 289 288 291 292 290 280 265 271 277 262 260 253 244 233 245 251 251 249 243 243 247 247 252 247 236 223 213 221 213 212 210 206 202 193 193 184 168 158 165 168 176 183 187 192 191 189 194 192 185 187 182 176 169 161 161 162 161 160 158 147 135 144 151 149 143 133 137 140 125 130 143 143 122 121 135 123 116 155
297 295 297 298 298 301 301 297 294 291 288 288 292 290 263 243 248 259 270 252 233 237 241 250 250 236 240 243 225 235 246 242 221 223 223 219 219 214 212 203 196 186 176 171 165 171 179 182 187 190 193 192 190 191 192 187 183 177 179 165 160 162 166 163 155 144 137 138 141 147 153 147 127 144 146 141 119 127 159 157 140 142 132 144 148
298 295 296 295 297 299 297 296 296 293 290 289 289 288 296 288 252 245 252 260 254 248 249 251 253 248 236 254 244 239 250 234 196 205 211 216 217 215 207 199 192 182 175 167 170 179 181 183 187 189 193 193 193 190 184 183 181 175 170 164 162 162 159 152 142 129 134 136 147 152 151 154 152 153 153 151 150 139 116 103 122 133 136 143 154
303 301 302 300 301 297 292 291 292 291 290 287 284 285 289 293 296 269 241 250 256 251 253 252 251 250 245 242 246 250 238 222 213 204 208 210 213 213 210 200 192 181 179 172 178 190 187 186 187 187 188 193 192 186 180 177 173 169 160 156 163 162 153 148 137 136 141 144 148 151 153 152 150 151 146 147 148 143 148 123 132 129 125 126 161
308 303 300 299 298 295 293 291 288 288 287 288 288 284 281 282 285 297 290 231 245 256 249 250 250 249 246 243 238 237 238 232 216 210 208 210 211 212 208 203 195 183 178 181 188 189 191 189 189 189 190 192 188 186 180 176 169 165 162 163 159 153 138 126 129 138 144 151 144 147 149 145 145 141 143 149 151 153 150 140 136 137 145 154 161
301 293 293 294 294 291 289 288 288 287 284 281 280 281 278 272 275 277 286 295 277 254 253 249 248 246 245 241 238 236 234 226 217 214 213 214 213 213 212 210 200 189 181 185 185 192 190 191 189 187 188 189 186 180 174 168 160 157 153 145 127 117 117 122 133 137 134 142 143 142 143 145 145 144 152 154 152 145 141 151 149 154 169 176 184
300 294 292 291 285 286 287 286 285 284 284 281 279 276 273 272 267 267 269 273 276 277 273 252 239 237 240 241 236 231 220 212 211 215 221 216 213 213 213 208 198 193 189 188 189 189 187 188 186 185 184 185 183 177 174 164 156 154 150 134 125 127 128 137 139 138 139 138 139 148 149 147 153 157 155 155 150 154 155 155 166 169 172 176 175
299 296 297 295 288 281 282 283 282 280 282 281 278 273 271 270 266 264 262 260 264 267 270 255 242 234 236 238 233 229 226 215 215 218 219 218 214 208 207 207 201 196 192 188 187 187 183 184 181 179 177 179 170 169 164 156 153 148 143 141 142 143 141 138 140 142 144 145 147 145 145 150 155 155 151 152 159 160 161 164 166 172 173 177 172
298 295 294 293 291 288 284 280 274 275 276 275 277 274 269 264 261 261 257 258 258 258 259 263 248 250 234 233 227 224 224 224 223 220 220 218 212 206 205 203 205 197 191 182 177 174 179 179 171 164 162 160 156 153 143 145 138 134 133 135 139 142 149 148 147 144 145 145 146 152 156 159 159 160 156 157 161 157 161 165 170 177 180 180 169
292 288 289 291 291 288 286 282 281 281 277 271 270 270 268 263 259 255 254 254 254 256 256 250 231 231 220 225 190 200 216 215 214 218 219 220 215 213 205 186 179 180 180 165 163 164 162 142 137 142 134 136 138 134 134 132 137 135 136 135 139 144 148 145 149 143 143 143 150 155 157 159 161 159 158 159 166 166 167 169 170 180 184 184 184
295 291 291 291 289 286 284 286 285 282 276 274 272 272 269 266 260 254 252 250 252 248 247 238 229 228 223 189 191 193 187 203 199 200 190 191 199 185 164 160 146 129 122 132 131 137 124 126 118 118 129 135 138 141 140 140 138 139 139 137 137 140 147 143 148 150 149 152 151 156 156 159 159 162 163 161 166 168 170 170 175 179 183 191 197
299 298 296 297 293 289 286 284 285 282 280 281 278 275 272 264 259 255 250 247 243 240 234 231 229 227 203 188 193 187 196 199 196 185 176 181 163 144 136 121 111 118 123 127 131 127 126 122 130 130 133 135 141 141 143 141 144 142 143 145 146 150 153 151 150 151 153 150 152 156 156 157 158 156 166 170 167 165 167 174 180 186 188 189 189
296 295 297 298 294 294 290 286 284 282 283 279 277 275 270 264 257 252 246 242 238 235 228 223 214 182 165 195 202 194 161 153 143 129 129 130 115 113 106 100 108 111 110 116 121 123 125 129 130 136 136 138 139 138 138 138 136 141 142 141 137 139 139 140 142 142 143 145 149 152 155 152 153 157 170 173 156 158 166 162 165 177 184 183 172
294 293 293 292 294 289 289 286 284 283 281 278 274 272 268 261 254 245 239 231 229 215 205 168 173 164 168 169 177 140 105 89 89 94 89 82 79 80 88 89 96 105 115 118 124 126 125 125 129 135 140 140 139 138 134 136 141 139 139 138 138 136 138 142 142 141 141 144 145 152 153 153 158 167 164 156 160 157 152 161 169 167 170 176 171
291 289 287 288 290 287 286 286 284 283 280 280 277 275 265 260 250 240 226 217 199 181 168 160 160 160 158 161 130 116 103 110 106 103 95 90 85 78 74 76 80 80 86 91 93 108 115 117 113 114 127 136 140 142 144 142 141 135 133 134 135 136 133 130 127 132 132 136 143 146 150 154 154 155 149 152 156 155 164 163 162 169 174 168 171
287 289 284 281 279 279 274 272 276 275 277 279 278 276 264 250 236 208 203 187 178 156 155 156 153 120 94 93 91 80 86 87 91 94 98 97 95 92 91 89 89 85 82 79 88 96 108 107 102 86 73 74 80 94 106 121 126 130 129 128 129 129 130 134 141 146 148 143 142 144 148 147 145 144 147 149 147 154 151 152 161 165 159 164 158
280 283 285 283 282 282 285 284 283 285 284 282 274 271 259 242 216 197 175 163 140 137 142 131 112 112 108 97 97 100 96 98 101 102 98 100 100 95 95 89 87 87 86 78 75 92 99 106 108 106 96 73 63 73 75 68 80 109 127 129 128 132 143 152 157 152 146 140 144 143 147 149 154 157 156 155 161 157 158 170 165 150 153 160 167
281 282 279 281 286 289 291 292 292 288 283 279 275 276 306 291 147 144 140 127 136 140 128 110 99 89 92 92 92 95 98 95 87 88 93 88 87 67 64 80 78 80 76 70 70 79 93 104 111 110 105 101 96 89 82 78 80 73 74 86 108 118 120 116 120 130 143 142 145 149 148 150 151 162 160 156 161 160 161 154 160 171 175 176 186
281 279 287 290 291 292 293 296 297 299 298 303 316 321 343 4 36 72 87 105 115 105 96 91 89 90 87 92 93 93 89 90 91 78 84 85 77 83 83 90 89 83 79 80 83 94 92 93 98 108 107 105 97 91 76 66 72 71 73 83 96 100 105 118 124 130 130 131 133 136 146 151 149 146 147 141 144 155 151 165 172 176 178 176 179
296 300 297 298 299 305 310 316 318 322 332 339 347 348 1 14 27 41 69 88 89 88 85 76 70 69 71 60 78 81 85 84 82 75 74 75 78 74 80 86 91 95 94 88 76 86 94 100 96 100 93 89 73 79 69 75 71 80 78 67 70 105 107 105 105 100 109 118 125 133 138 140 141 146 149 155 161 159 161 172 165 170 168 173 167
310 307 306 307 309 312 321 326 339 348 346 346 354 6 9 15 25 24 26 44 58 66 71 69 64 66 68 68 70 72 85 86 84 63 69 76 78 85 81 66 68 57 63 71 64 64 64 63 61 63 73 78 84 95 95 91 92 87 90 91 103 105 98 98 105 112 116 113 115 117 122 128 141 150 154 157 161 163 165 155 160 164 162 161 166
318 316 316 319 322 322 327 334 345 352 359 8 5 13 14 25 23 29 25 42 46 44 52 63 65 64 73 77 80 80 69 63 72 73 69 67 82 86 77 59 57 60 63 65 67 67 64 57 66 83 88 89 93 91 94 97 99 103 98 107 111 109 110 106 110 116 120 126 126 132 132 133 135 143 152 152 151 153 158 164 161 161 164 169 180
327 326 326 329 332 329 334 343 355 2 4 9 14 23 21 20 17 24 46 40 33 39 38 48 50 62 60 69 84 74 75 81 79 84 86 82 79 68 64 72 73 71 67 62 63 58 53 53 63 69 70 85 90 92 91 94 98 113 123 120 117 115 114 114 115 117 112 114 120 121 130 138 140 137 141 142 143 153 168 157 159 167 173 179 175